"Period start","avg(HW err(1)/warn(2) (#))","avg(Visibility (m))","avg(Weather code (#))","avg(Precip intensity (mm/h))","min(HW err(1)/warn(2) (#))","max(HW err(1)/warn(2) (#))","std(HW err(1)/warn(2) (#))","med(HW err(1)/warn(2) (#))","min(Visibility (m))","max(Visibility (m))","std(Visibility (m))","med(Visibility (m))","min(Weather code (#))","max(Weather code (#))","std(Weather code (#))","med(Weather code (#))","min(Precip intensity (mm/h))","max(Precip intensity (mm/h))","std(Precip intensity (mm/h))","med(Precip intensity (mm/h))"
2014-08-12 00:00:00,0,15115,62,12.84,0,0,0,0,7775,22187,4777,15231,61,63,1,61,0.70,51.75,15.96,3.00
2014-08-12 00:10:00,0,23636,60,0.28,0,0,0,0,17616,30012,3756,22982,51,61,3,61,0.10,0.70,0.19,0.20
2014-08-12 00:20:00,0,25173,54,1.25,0,0,0,0,17673,38322,6642,22452,51,61,5,51,0.10,3.80,1.28,0.80
2014-08-12 00:30:00,0,17744,61,2.58,0,0,0,0,13777,21457,2648,17564,61,61,0,61,0.80,7.10,1.81,2.28
2014-08-12 00:40:00,0,15359,61,5.83,0,0,0,0,13671,18603,1338,15106,61,62,0,61,2.50,13.50,3.32,4.62
2014-08-12 00:50:00,0,17544,61,2.15,0,0,0,0,14775,21374,1867,17765,61,61,0,61,0.35,7.40,1.98,1.67
2014-08-12 01:00:00,0,12504,62,20.72,0,0,0,0,6493,16127,3748,14708,61,63,1,61,0.95,73.60,25.13,8.35
2014-08-12 01:10:00,0,5440,71,66.84,0,0,0,0,3236,8787,1987,5138,62,89,12,63,23.85,106.90,29.04,73.15
2014-08-12 01:20:00,0,4150,71,81.89,0,0,0,0,1164,6010,1453,4266,62,89,12,63,36.00,225.50,54.35,62.05
2014-08-12 01:30:00,0,6753,62,22.21,0,0,0,0,4771,9062,1566,6878,61,62,0,62,6.85,38.15,10.83,24.80
2014-08-12 01:40:00,0,4772,81,67.49,0,0,0,0,1026,7816,2212,4706,63,89,12,89,15.95,155.90,49.99,46.20
2014-08-12 01:50:00,0,8435,62,20.76,0,0,0,0,3275,13033,3675,9357,61,63,1,61,0.35,98.25,28.92,6.38
2014-08-12 02:00:00,0,14041,61,0.39,0,0,0,0,11729,18888,2005,13577,61,61,0,61,0.20,0.75,0.18,0.35
2014-08-12 02:10:00,0,18006,31,0.12,0,0,0,0,12764,23034,3152,18728,0,51,25,51,0.00,0.35,0.13,0.05
2014-08-12 02:20:00,0,28291,0,0.00,0,0,0,0,20458,39966,6243,28015,0,0,0,0,0.00,0.00,0.00,0.00
2014-08-12 02:30:00,0,35263,0,0.00,0,0,0,0,26040,41665,4410,35761,0,0,0,0,0.00,0.00,0.00,0.00
2014-08-12 02:40:00,0,30743,0,0.00,0,0,0,0,22383,45850,7611,26278,0,0,0,0,0.00,0.00,0.00,0.00
2014-08-12 02:50:00,0,18830,0,0.00,0,0,0,0,12002,22203,2792,19831,0,0,0,0,0.00,0.00,0.00,0.00
2014-08-12 03:00:00,0,19628,0,0.00,0,0,0,0,15670,27884,3435,18874,0,0,0,0,0.00,0.00,0.00,0.00
2014-08-12 03:10:00,0,11866,0,0.00,0,0,0,0,9422,15790,1923,11842,0,0,0,0,0.00,0.00,0.00,0.00
2014-08-12 03:20:00,0,12064,0,0.00,0,0,0,0,8634,16640,2414,11286,0,0,0,0,0.00,0.00,0.00,0.00
2014-08-12 03:30:00,0,18746,38,0.25,0,0,0,0,13657,27098,4197,17742,0,61,25,51,0.00,0.75,0.23,0.25
2014-08-12 03:40:00,0,30387,56,0.53,0,0,0,0,23086,42026,5876,28868,51,61,5,56,0.10,2.30,0.61,0.40
2014-08-12 03:50:00,0,23999,61,1.60,0,0,0,0,20146,27344,1787,23887,61,61,0,61,0.15,3.20,0.96,1.60
2014-08-12 04:00:00,0,28924,57,0.18,0,0,0,0,22772,37302,4611,27874,51,61,5,61,0.05,0.40,0.09,0.17
2014-08-12 04:10:00,0,39644,57,0.07,0,0,0,0,32568,43524,3217,39387,41,61,8,61,0.00,0.15,0.06,0.08
2014-08-12 04:20:00,0,40787,53,0.16,0,0,0,0,33505,46793,4598,40294,41,61,10,61,0.10,0.35,0.08,0.12
2014-08-12 04:30:00,0,32857,53,0.21,0,0,0,0,24705,40802,4796,33886,41,61,7,51,0.05,0.35,0.10,0.17
2014-08-12 04:40:00,0,31373,51,0.46,0,0,0,0,24931,37941,4499,32097,51,51,0,51,0.20,0.85,0.23,0.40
2014-08-12 04:50:00,0,23312,54,1.61,0,0,0,0,16156,28494,3889,22742,51,61,5,51,0.20,3.00,0.89,1.85
2014-08-12 05:00:00,0,21734,52,1.33,0,0,0,0,17372,27184,3766,21634,52,52,0,52,0.30,1.85,0.54,1.55
2014-08-12 05:10:00,0,29247,52,0.88,0,0,0,0,20854,36933,4777,29254,51,52,0,52,0.15,1.90,0.64,0.57
2014-08-12 05:20:00,0,31012,53,1.04,0,0,0,0,25783,37564,2976,30778,51,61,4,52,0.45,2.80,0.62,0.85
2014-08-12 05:30:00,0,22966,61,0.83,0,0,0,0,18686,28202,2574,23167,61,61,0,61,0.15,2.05,0.62,0.65
2014-08-12 05:40:00,0,30153,21,0.04,0,0,0,0,25044,37516,3556,29914,0,61,26,0,0.00,0.20,0.06,0.00
2014-08-12 05:50:00,0,29904,54,1.16,0,0,0,0,21786,39506,4911,30298,52,61,4,52,0.35,3.15,0.74,1.02
2014-08-12 06:00:00,0,28261,51,0.47,0,0,0,0,24486,32149,2515,28780,51,52,0,51,0.10,0.80,0.23,0.50
2014-08-12 06:10:00,0,26797,54,1.51,0,0,0,0,18915,37745,5273,26356,51,61,4,52,0.30,4.55,1.35,0.85
2014-08-12 06:20:00,0,20284,61,1.99,0,0,0,0,16499,24817,2624,19665,61,61,0,61,0.60,3.80,1.04,1.90
2014-08-12 06:30:00,0,27719,61,2.43,0,0,0,0,19594,43667,6497,27186,61,61,0,61,1.05,3.85,0.88,2.20
2014-08-12 06:40:00,0,31465,61,1.81,0,0,0,0,20003,46060,7333,30882,61,61,0,61,0.45,4.80,1.19,1.70
2014-08-12 06:50:00,0,44496,34,0.05,0,0,0,0,36370,50000,5830,47192,0,61,28,51,0.00,0.15,0.07,0.00
2014-08-12 07:00:00,0,38246,0,0.00,0,0,0,0,30012,46993,5944,36363,0,0,0,0,0.00,0.00,0.00,0.00
2014-08-12 07:10:00,0,28368,60,1.01,0,0,0,0,20403,40440,6913,27742,51,61,3,61,0.35,1.65,0.46,0.98
2014-08-12 07:20:00,0,30500,51,0.62,0,0,0,0,24237,41960,5502,28990,51,52,0,51,0.25,1.00,0.28,0.65
2014-08-12 07:30:00,0,26933,52,0.78,0,0,0,0,23350,31287,2909,27029,52,52,0,52,0.30,1.80,0.44,0.70
2014-08-12 07:40:00,0,33866,43,0.14,0,0,0,0,22137,46918,7476,35502,0,61,22,52,0.00,0.55,0.19,0.05
2014-08-12 07:50:00,0,33160,18,0.04,0,0,0,0,22265,41252,5194,35298,0,61,28,0,0.00,0.20,0.07,0.00
2014-08-12 08:00:00,0,32238,38,0.29,0,0,0,0,19791,44555,8144,30933,0,61,26,46,0.00,1.40,0.42,0.08
2014-08-12 08:10:00,0,26377,52,1.28,0,0,0,0,20554,35144,4019,25710,52,52,0,52,0.30,2.50,0.64,1.18
2014-08-12 08:20:00,0,30746,55,0.77,0,0,0,0,20088,40396,6231,31542,52,61,4,52,0.20,1.75,0.41,0.65
2014-08-12 08:30:00,0,30075,51,0.40,0,0,0,0,23598,41437,5446,27908,51,52,0,51,0.05,0.70,0.23,0.43
2014-08-12 08:40:00,0,35891,40,0.06,0,0,0,0,28330,42079,4673,35566,0,61,26,51,0.00,0.20,0.08,0.03
2014-08-12 08:50:00,0,45378,0,0.00,0,0,0,0,38963,50000,3974,46798,0,0,0,0,0.00,0.00,0.00,0.00
2014-08-12 09:00:00,0,48322,0,0.00,0,0,0,0,44804,50000,1758,48818,0,0,0,0,0.00,0.00,0.00,0.00
2014-08-12 09:10:00,0,45390,0,0.00,0,0,0,0,39742,50000,3454,45637,0,0,0,0,0.00,0.00,0.00,0.00
2014-08-12 09:20:00,0,46471,0,0.00,0,0,0,0,41359,50000,2748,45844,0,0,0,0,0.00,0.00,0.00,0.00
2014-08-12 09:30:00,0,45475,0,0.00,0,0,0,0,41307,50000,2947,45428,0,0,0,0,0.00,0.00,0.00,0.00
2014-08-12 09:40:00,0,46216,0,0.00,0,0,0,0,38710,50000,3596,47290,0,0,0,0,0.00,0.00,0.00,0.00
2014-08-12 09:50:00,0,43594,0,0.00,0,0,0,0,37779,50000,3539,44610,0,0,0,0,0.00,0.00,0.00,0.00
2014-08-12 10:00:00,0,44771,0,0.00,0,0,0,0,40061,50000,2691,45098,0,0,0,0,0.00,0.00,0.00,0.00
2014-08-12 10:10:00,0,40276,0,0.00,0,0,0,0,33500,50000,4408,39447,0,0,0,0,0.00,0.00,0.00,0.00
2014-08-12 10:20:00,0,36665,12,0.36,0,0,0,0,22003,47371,8270,38477,0,61,24,0,0.00,1.85,0.71,0.00
2014-08-12 10:30:00,0,39057,30,0.03,0,0,0,0,31846,46068,4538,37922,0,61,30,30,0.00,0.15,0.05,0.00
2014-08-12 10:40:00,0,34438,24,0.01,0,0,0,0,27153,41261,4571,33698,0,61,30,0,0.00,0.05,0.02,0.00
2014-08-12 10:50:00,0,28445,0,0.00,0,0,0,0,25050,35755,2794,28239,0,0,0,0,0.00,0.00,0.00,0.00
2014-08-12 11:00:00,0,31211,0,0.00,0,0,0,0,27808,39537,3386,30435,0,0,0,0,0.00,0.00,0.00,0.00
2014-08-12 11:10:00,0,36120,0,0.00,0,0,0,0,31748,41682,2794,35758,0,0,0,0,0.00,0.00,0.00,0.00
2014-08-12 11:20:00,0,30949,0,0.00,0,0,0,0,28973,35186,2248,29656,0,0,0,0,0.00,0.00,0.00,0.00
2014-08-12 11:30:00,0,26342,0,0.00,0,0,0,0,22667,29870,2404,25990,0,0,0,0,0.00,0.00,0.00,0.00
2014-08-12 11:40:00,0,23014,0,0.00,0,0,0,0,17889,27734,2571,23637,0,0,0,0,0.00,0.00,0.00,0.00
2014-08-12 11:50:00,0,24691,0,0.00,0,0,0,0,20133,29995,3038,24914,0,0,0,0,0.00,0.00,0.00,0.00
2014-08-12 12:00:00,0,25436,0,0.00,0,0,0,0,22314,30596,2386,25374,0,0,0,0,0.00,0.00,0.00,0.00
2014-08-12 12:10:00,0,17693,0,0.00,0,0,0,0,15374,21010,1462,17492,0,0,0,0,0.00,0.00,0.00,0.00
2014-08-12 12:20:00,0,15410,0,0.00,0,0,0,0,14317,17618,931,15280,0,0,0,0,0.00,0.00,0.00,0.00
2014-08-12 12:30:00,0,13736,0,0.00,0,0,0,0,12614,14965,865,14030,0,0,0,0,0.00,0.00,0.00,0.00
2014-08-12 12:40:00,0,12615,0,0.00,0,0,0,0,11822,13063,411,12735,0,0,0,0,0.00,0.00,0.00,0.00
2014-08-12 12:50:00,0,12398,0,0.00,0,0,0,0,11444,13128,540,12558,0,0,0,0,0.00,0.00,0.00,0.00
2014-08-12 13:00:00,0,12342,0,0.00,0,0,0,0,11788,13075,363,12376,0,0,0,0,0.00,0.00,0.00,0.00
2014-08-12 13:10:00,0,12169,0,0.00,0,0,0,0,11485,12871,500,12040,0,0,0,0,0.00,0.00,0.00,0.00
2014-08-12 13:20:00,0,12165,0,0.00,0,0,0,0,11731,12858,348,12166,0,0,0,0,0.00,0.00,0.00,0.00
2014-08-12 13:30:00,0,12074,0,0.00,0,0,0,0,11343,12409,305,12127,0,0,0,0,0.00,0.00,0.00,0.00
2014-08-12 13:40:00,0,11936,0,0.00,0,0,0,0,11332,12587,384,11956,0,0,0,0,0.00,0.00,0.00,0.00
2014-08-12 13:50:00,0,11538,0,0.00,0,0,0,0,11125,12102,274,11523,0,0,0,0,0.00,0.00,0.00,0.00
2014-08-12 14:00:00,0,11559,0,0.00,0,0,0,0,11264,11875,166,11540,0,0,0,0,0.00,0.00,0.00,0.00
2014-08-12 14:10:00,0,11431,0,0.00,0,0,0,0,11025,11819,249,11468,0,0,0,0,0.00,0.00,0.00,0.00
2014-08-12 14:20:00,0,11264,0,0.00,0,0,0,0,10882,11663,265,11212,0,0,0,0,0.00,0.00,0.00,0.00
2014-08-12 14:30:00,0,11491,0,0.00,0,0,0,0,11005,12040,376,11340,0,0,0,0,0.00,0.00,0.00,0.00
2014-08-12 14:40:00,0,12477,0,0.00,0,0,0,0,11669,13407,571,12459,0,0,0,0,0.00,0.00,0.00,0.00
2014-08-12 14:50:00,0,13643,0,0.00,0,0,0,0,12439,14874,622,13554,0,0,0,0,0.00,0.00,0.00,0.00
2014-08-12 15:00:00,0,13450,0,0.00,0,0,0,0,12808,14211,439,13473,0,0,0,0,0.00,0.00,0.00,0.00
2014-08-12 15:10:00,0,13374,0,0.00,0,0,0,0,11877,15386,912,13171,0,0,0,0,0.00,0.00,0.00,0.00
2014-08-12 15:20:00,0,12353,0,0.00,0,0,0,0,11611,13267,491,12346,0,0,0,0,0.00,0.00,0.00,0.00
2014-08-12 15:30:00,0,12853,0,0.00,0,0,0,0,12283,13793,487,12832,0,0,0,0,0.00,0.00,0.00,0.00
2014-08-12 15:40:00,0,12870,0,0.00,0,0,0,0,11808,14380,774,12894,0,0,0,0,0.00,0.00,0.00,0.00
2014-08-12 15:50:00,0,15155,0,0.00,0,0,0,0,13790,17771,1345,14574,0,0,0,0,0.00,0.00,0.00,0.00
2014-08-12 16:00:00,0,20241,0,0.00,0,0,0,0,18364,21300,876,20324,0,0,0,0,0.00,0.00,0.00,0.00
2014-08-12 16:10:00,0,21796,0,0.00,0,0,0,0,19372,24585,1778,21897,0,0,0,0,0.00,0.00,0.00,0.00
2014-08-12 16:20:00,0,25698,0,0.00,0,0,0,0,21207,30787,2765,25556,0,0,0,0,0.00,0.00,0.00,0.00
2014-08-12 16:30:00,0,30425,0,0.00,0,0,0,0,25977,38118,3611,29378,0,0,0,0,0.00,0.00,0.00,0.00
2014-08-12 16:40:00,0,38008,0,0.00,0,0,0,0,32387,44038,3035,37560,0,0,0,0,0.00,0.00,0.00,0.00
2014-08-12 16:50:00,0,35823,0,0.00,0,0,0,0,31950,41578,3028,35186,0,0,0,0,0.00,0.00,0.00,0.00
2014-08-12 17:00:00,0,29162,0,0.00,0,0,0,0,21437,35829,4211,29136,0,0,0,0,0.00,0.00,0.00,0.00
2014-08-12 17:10:00,0,21726,61,2.25,0,0,0,0,15900,31540,4182,22201,61,61,0,61,0.90,4.30,0.90,2.12
2014-08-12 17:20:00,0,33656,52,0.80,0,0,0,0,23524,50000,8214,32928,51,61,3,52,0.05,1.70,0.63,0.70
2014-08-12 17:30:00,0,48067,45,0.06,0,0,0,0,44730,50000,1691,48350,41,61,7,41,0.00,0.20,0.06,0.05
2014-08-12 17:40:00,0,32705,55,2.08,0,0,0,0,17628,45316,8789,31218,51,61,5,52,0.15,7.25,2.58,0.68
2014-08-12 17:50:00,0,45016,24,1.60,0,0,0,0,32434,50000,5334,44702,0,61,30,0,0.00,7.80,2.63,0.00
2014-08-12 18:00:00,0,49599,0,0.00,0,0,0,0,47249,50000,869,50000,0,0,0,0,0.00,0.00,0.00,0.00
2014-08-12 18:10:00,0,49921,0,0.00,0,0,0,0,49214,50000,236,50000,0,0,0,0,0.00,0.00,0.00,0.00
2014-08-12 18:20:00,0,49440,0,0.00,0,0,0,0,47547,50000,859,50000,0,0,0,0,0.00,0.00,0.00,0.00
2014-08-12 18:30:00,0,49755,0,0.00,0,0,0,0,47616,50000,713,50000,0,0,0,0,0.00,0.00,0.00,0.00
2014-08-12 18:40:00,0,49661,0,0.00,0,0,0,0,47757,50000,721,50000,0,0,0,0,0.00,0.00,0.00,0.00
2014-08-12 18:50:00,0,49996,0,0.00,0,0,0,0,49961,50000,12,50000,0,0,0,0,0.00,0.00,0.00,0.00
2014-08-12 19:00:00,0,48890,0,0.00,0,0,0,0,43098,50000,2210,50000,0,0,0,0,0.00,0.00,0.00,0.00
2014-08-12 19:10:00,0,49764,0,0.00,0,0,0,0,48853,50000,417,50000,0,0,0,0,0.00,0.00,0.00,0.00
2014-08-12 19:20:00,0,49760,0,0.00,0,0,0,0,49159,50000,329,50000,0,0,0,0,0.00,0.00,0.00,0.00
2014-08-12 19:30:00,0,49932,0,0.00,0,0,0,0,49324,50000,203,50000,0,0,0,0,0.00,0.00,0.00,0.00
2014-08-12 19:40:00,0,49826,0,0.00,0,0,0,0,48255,50000,524,50000,0,0,0,0,0.00,0.00,0.00,0.00
2014-08-12 19:50:00,0,50000,0,0.00,0,0,0,0,50000,50000,0,50000,0,0,0,0,0.00,0.00,0.00,0.00
2014-08-12 20:00:00,0,49523,0,0.00,0,0,0,0,45230,50000,1431,50000,0,0,0,0,0.00,0.00,0.00,0.00
2014-08-12 20:10:00,0,48227,0,0.00,0,0,0,0,41110,50000,3014,50000,0,0,0,0,0.00,0.00,0.00,0.00
2014-08-12 20:20:00,0,49413,0,0.00,0,0,0,0,47958,50000,780,49843,0,0,0,0,0.00,0.00,0.00,0.00
2014-08-12 20:30:00,0,46813,0,0.00,0,0,0,0,41113,50000,3431,47696,0,0,0,0,0.00,0.00,0.00,0.00
2014-08-12 20:40:00,0,48790,0,0.00,0,0,0,0,41694,50000,2583,50000,0,0,0,0,0.00,0.00,0.00,0.00
2014-08-12 20:50:00,0,46046,0,0.00,0,0,0,0,38549,49884,3939,47557,0,0,0,0,0.00,0.00,0.00,0.00
2014-08-12 21:00:00,0,47388,0,0.00,0,0,0,0,39703,50000,3533,50000,0,0,0,0,0.00,0.00,0.00,0.00
2014-08-12 21:10:00,0,50000,0,0.00,0,0,0,0,50000,50000,0,50000,0,0,0,0,0.00,0.00,0.00,0.00
2014-08-12 21:20:00,0,49003,0,0.00,0,0,0,0,43073,50000,2175,50000,0,0,0,0,0.00,0.00,0.00,0.00
2014-08-12 21:30:00,0,49470,0,0.00,0,0,0,0,44748,50000,1574,50000,0,0,0,0,0.00,0.00,0.00,0.00
2014-08-12 21:40:00,0,49129,0,0.00,0,0,0,0,45191,50000,1438,49875,0,0,0,0,0.00,0.00,0.00,0.00
2014-08-12 21:50:00,0,48945,0,0.00,0,0,0,0,47240,50000,1094,49222,0,0,0,0,0.00,0.00,0.00,0.00
2014-08-12 22:00:00,0,49623,0,0.00,0,0,0,0,48454,50000,516,50000,0,0,0,0,0.00,0.00,0.00,0.00
2014-08-12 22:10:00,0,47079,0,0.00,0,0,0,0,38186,50000,4100,50000,0,0,0,0,0.00,0.00,0.00,0.00
2014-08-12 22:20:00,0,45670,0,0.00,0,0,0,0,34008,50000,5644,49663,0,0,0,0,0.00,0.00,0.00,0.00
2014-08-12 22:30:00,0,49479,0,0.00,0,0,0,0,46193,50000,1172,50000,0,0,0,0,0.00,0.00,0.00,0.00
2014-08-12 22:40:00,0,45958,0,0.00,0,0,0,0,30973,50000,6196,49968,0,0,0,0,0.00,0.00,0.00,0.00
2014-08-12 22:50:00,0,44818,0,0.00,0,0,0,0,33556,50000,6246,48320,0,0,0,0,0.00,0.00,0.00,0.00
2014-08-12 23:00:00,0,48766,0,0.00,0,0,0,0,42432,50000,2387,50000,0,0,0,0,0.00,0.00,0.00,0.00
2014-08-12 23:10:00,0,46356,0,0.00,0,0,0,0,38526,50000,3513,46265,0,0,0,0,0.00,0.00,0.00,0.00
2014-08-12 23:20:00,0,46497,0,0.00,0,0,0,0,36900,50000,4118,48236,0,0,0,0,0.00,0.00,0.00,0.00
2014-08-12 23:30:00,0,44327,0,0.00,0,0,0,0,28912,50000,7258,47444,0,0,0,0,0.00,0.00,0.00,0.00
2014-08-12 23:40:00,0,45223,0,0.00,0,0,0,0,34275,50000,5103,46786,0,0,0,0,0.00,0.00,0.00,0.00
2014-08-12 23:50:00,0,38417,0,0.00,0,0,0,0,27465,50000,8130,35740,0,0,0,0,0.00,0.00,0.00,0.00
